C/2019 T3 ( ATLAS )

Japanese version
Home page
Updated on December 24, 2019

---------------------------------------------------------------------

* Profile

Discovery Date October 6, 2019
Magnitude 18.9 mag
Discoverer Asteroid Terrestrial-Impact Last Alert System (ATLAS) search program

* Pictures

* Orbital Elements

Epoch 2021 Mar. 7.0 TT = JDT 2459280.5
T 2021 Mar. 2.70263 TT                                  Williams
q   5.9464959            (2000.0)            P               Q
z  +0.0002982      Peri.  112.27637     +0.60544889     +0.57397061
 +/-0.0000234      Node   139.52094     -0.19750219     -0.56273285
e   0.9982267      Incl.  121.86236     +0.77098932     -0.59488611
From 115 observations 2019 Jan. 17-Dec. 2, mean residual 0".4.

* Magnitudes Graph

        m1 = -2.8 + 5 log d + 20.0 log r

---------------------------------------------------------------------

The orbital elements are published on M.P.E.C. 2019-X94.
The magnitudes graphs are made with Comet for Windows.

---------------------------------------------------------------------

Copyright(C) Seiichi Yoshida (comet@aerith.net). All rights reserved.